Powrót do katalogu

FREGAT DEB

LostUNKNOWN
NORAD 46093·DEBRIS·🇷🇺 Russia

Wystrzelony Jul 18, 2011 z Baikonur Cosmodrome

Loading…

Następne Przeloty (najbliższe 24 godziny)

TLE

NieaktualneSource: Space-Track

Epoka: Mar 18, 2021, 18:20 UTC

1 46093U 11037JC  21077.76423170  .00146283  00000-0  00000-0 0  9995
2 46093  51.1218 228.2711 1935763  98.3237 284.0325  9.72649810 21857

Śledź FREGAT DEB w czasie rzeczywistym z AllMySat

Download on the App Store